| time (UTC) | temp F | wind direction | speed MPH | gust MPH | rain 1hr in | rain 24hr in | rain mn in | humidity % | barometer mb |
| 20260831061031 | 57 | 303 | 0.0 | 5.0 | 0.00 | 0.01 | 0.00 | 88 | 1009.2 |
| 20260831060030 | 56 | 340 | 0.0 | 5.0 | 0.00 | 0.01 | 0.00 | 89 | 1009.1 |
| 20260831055027 | 56 | 250 | 0.0 | 2.0 | 0.00 | 0.01 | 0.00 | 90 | 1009.0 |
| 20260831054022 | 56 | 287 | 0.0 | 5.0 | 0.00 | 0.01 | 0.00 | 90 | 1008.7 |
| 20260831053031 | 56 | 56 | 0.0 | 5.0 | 0.00 | 0.01 | 0.00 | 89 | 1008.6 |
| 20260831052028 | 57 | 119 | 0.0 | 2.0 | 0.00 | 0.01 | 0.00 | 89 | 1008.7 |
| 20260831051021 | 57 | 206 | 0.0 | 2.0 | 0.00 | 0.01 | 0.00 | 89 | 1008.4 |
| 20260831050023 | 57 | 322 | 0.0 | 5.0 | 0.00 | 0.01 | 0.00 | 89 | 1008.4 |
| 20260831045019 | 57 | 81 | 0.0 | 2.0 | 0.00 | 0.01 | 0.00 | 88 | 1008.2 |
| 20260831044046 | 57 | 277 | 0.0 | 2.0 | 0.00 | 0.01 | 0.00 | 88 | 1008.1 |
| 20260831043042 | 57 | 302 | 1.0 | 7.0 | 0.00 | 0.01 | 0.00 | 88 | 1007.9 |
| 20260831042017 | 57 | 195 | 0.0 | 5.0 | 0.00 | 0.01 | 0.00 | 88 | 1008.0 |
| 20260831041026 | 58 | 35 | 0.0 | 5.0 | 0.00 | 0.01 | 0.00 | 88 | 1008.0 |
| 20260831040023 | 58 | 144 | 0.0 | 2.0 | 0.00 | 0.01 | 0.00 | 88 | 1007.9 |
| 20260831035111 | 58 | 62 | 0.0 | 2.0 | 0.00 | 0.01 | 0.00 | 87 | 1007.7 |
| 20260831034026 | 59 | 185 | 0.0 | 2.0 | 0.00 | 0.01 | 0.00 | 87 | 1007.8 |
| 20260831033022 | 59 | 98 | 0.0 | 2.0 | 0.00 | 0.01 | 0.00 | 86 | 1007.8 |
| 20260831032030 | 59 | 145 | 0.0 | 5.0 | 0.00 | 0.01 | 0.00 | 86 | 1007.6 |
| 20260831031027 | 60 | 122 | 0.0 | 5.0 | 0.00 | 0.01 | 0.00 | 86 | 1007.6 |
| 20260831030022 | 60 | 157 | 0.0 | 2.0 | 0.00 | 0.01 | 0.00 | 85 | 1007.5 |
| 20260831025016 | 60 | 194 | 0.0 | 2.0 | 0.00 | 0.01 | 0.00 | 85 | 1007.4 |
| 20260831024027 | 60 | 10 | 1.0 | 5.0 | 0.00 | 0.01 | 0.00 | 86 | 1007.2 |
| 20260831023015 | 60 | 150 | 1.0 | 5.0 | 0.00 | 0.01 | 0.00 | 88 | 1007.1 |
| 20260831022026 | 60 | 229 | 0.0 | 5.0 | 0.00 | 0.01 | 0.00 | 90 | 1007.0 |
| 20260831021022 | 60 | 188 | 0.0 | 2.0 | 0.00 | 0.01 | 0.00 | 91 | 1006.9 |
| 20260831020037 | 60 | 76 | 0.0 | 2.0 | 0.00 | 0.01 | 0.00 | 91 | 1006.8 |
| 20260831015026 | 60 | 304 | 0.0 | 2.0 | 0.00 | 0.01 | 0.00 | 91 | 1006.8 |
| 20260831014022 | 60 | 294 | 0.0 | 2.0 | 0.00 | 0.01 | 0.00 | 91 | 1007.0 |
| 20260831013051 | 60 | 196 | 0.0 | 2.0 | 0.00 | 0.01 | 0.00 | 91 | 1007.0 |
| 20260831012026 | 60 | 223 | 0.0 | 2.0 | 0.00 | 0.01 | 0.00 | 91 | 1007.0 |
| 20260831011021 | 61 | 221 | 0.0 | 2.0 | 0.00 | 0.01 | 0.00 | 91 | 1007.0 |
| 20260831010030 | 61 | 170 | 1.0 | 5.0 | 0.00 | 0.01 | 0.00 | 91 | 1006.9 |
| 20260831005027 | 61 | 95 | 0.0 | 0.0 | 0.00 | 0.01 | 0.00 | 90 | 1007.0 |
| 20260831004022 | 61 | 155 | 1.0 | 5.0 | 0.00 | 0.01 | 0.00 | 90 | 1006.9 |
| 20260831003031 | 61 | 163 | 0.0 | 5.0 | 0.00 | 0.01 | 0.00 | 88 | 1006.9 |
| 20260831002026 | 61 | 154 | 0.0 | 2.0 | 0.00 | 0.01 | 0.00 | 88 | 1006.8 |
| 20260831001021 | 61 | 152 | 0.0 | 2.0 | 0.00 | 0.01 | 0.00 | 88 | 1007.1 |
| 20260831000031 | 61 | 169 | 0.0 | 5.0 | 0.00 | 0.01 | 0.00 | 87 | 1007.1 |
| 20260830235027 | 60 | 190 | 0.0 | 2.0 | 0.00 | 0.01 | 0.00 | 88 | 1007.2 |
| 20260830234021 | 60 | 152 | 0.0 | 5.0 | 0.00 | 0.01 | 0.00 | 88 | 1007.4 |
| 20260830233016 | 60 | 143 | 1.0 | 5.0 | 0.00 | 0.01 | 0.00 | 89 | 1007.4 |
| 20260830232028 | 60 | 220 | 0.0 | 2.0 | 0.00 | 0.01 | 0.00 | 89 | 1007.6 |
| 20260830231024 | 60 | 107 | 0.0 | 2.0 | 0.00 | 0.01 | 0.00 | 89 | 1007.6 |
| 20260830230016 | 60 | 99 | 0.0 | 0.0 | 0.00 | 0.01 | 0.00 | 88 | 1007.8 |
| 20260830225027 | 61 | 233 | 0.0 | 2.0 | 0.00 | 0.01 | 0.01 | 87 | 1007.9 |
| 20260830224022 | 61 | 167 | 0.0 | 5.0 | 0.00 | 0.01 | 0.01 | 87 | 1008.0 |
| 20260830223016 | 61 | 142 | 0.0 | 2.0 | 0.00 | 0.01 | 0.01 | 87 | 1008.1 |
| 20260830222026 | 61 | 193 | 0.0 | 2.0 | 0.00 | 0.01 | 0.01 | 86 | 1008.1 |
| 20260830221023 | 61 | 206 | 0.0 | 2.0 | 0.00 | 0.01 | 0.01 | 85 | 1008.2 |
| 20260830220019 | 62 | 157 | 0.0 | 2.0 | 0.00 | 0.01 | 0.01 | 84 | 1008.3 |
| 20260830215046 | 62 | 145 | 0.0 | 2.0 | 0.00 | 0.01 | 0.01 | 84 | 1008.2 |
| 20260830214021 | 63 | 143 | 0.0 | 5.0 | 0.00 | 0.01 | 0.01 | 83 | 1008.3 |
| 20260830213031 | 63 | 212 | 1.0 | 5.0 | 0.00 | 0.01 | 0.01 | 82 | 1008.5 |
| 20260830212026 | 63 | 214 | 1.0 | 7.0 | 0.00 | 0.01 | 0.01 | 81 | 1008.4 |
| 20260830211024 | 64 | 165 | 0.0 | 5.0 | 0.00 | 0.01 | 0.01 | 80 | 1008.4 |
| 20260830210032 | 64 | 252 | 1.0 | 7.0 | 0.00 | 0.01 | 0.01 | 80 | 1008.4 |
| 20260830205027 | 64 | 102 | 0.0 | 0.0 | 0.00 | 0.01 | 0.01 | 81 | 1008.2 |
| 20260830204523 | 64 | 116 | 0.0 | 2.0 | 0.00 | 0.01 | 0.01 | 81 | 1008.2 |
| 20260830204036 | 64 | 153 | 2.0 | 7.0 | 0.00 | 0.01 | 0.01 | 82 | 1008.2 |
| 20260830203043 | 64 | 162 | 2.0 | 10.0 | 0.00 | 0.01 | 0.01 | 83 | 1008.0 |
| 20260830202021 | 64 | 159 | 1.0 | 2.0 | 0.00 | 0.01 | 0.01 | 82 | 1008.0 |
| 20260830201024 | 64 | 141 | 1.0 | 5.0 | 0.00 | 0.01 | 0.01 | 83 | 1008.2 |
| 20260830195526 | 64 | 147 | 1.0 | 5.0 | 0.00 | 0.01 | 0.01 | 83 | 1008.3 |
| 20260830194022 | 65 | 117 | 0.0 | 0.0 | 0.00 | 0.01 | 0.01 | 82 | 1008.6 |
| 20260830193017 | 65 | 200 | 0.0 | 0.0 | 0.00 | 0.01 | 0.01 | 81 | 1008.5 |
| 20260830192523 | 65 | 148 | 0.0 | 2.0 | 0.00 | 0.01 | 0.01 | 78 | 1008.5 |
| 20260830191534 | 66 | 169 | 1.0 | 2.0 | 0.00 | 0.01 | 0.01 | 77 | 1008.7 |
| 20260830190547 | 66 | 171 | 0.0 | 5.0 | 0.00 | 0.01 | 0.01 | 77 | 1008.6 |
| 20260830185521 | 66 | 222 | 0.0 | 2.0 | 0.00 | 0.01 | 0.01 | 76 | 1008.7 |
| 20260830184530 | 67 | 167 | 0.0 | 5.0 | 0.00 | 0.01 | 0.01 | 75 | 1008.7 |
| 20260830183522 | 67 | 159 | 0.0 | 5.0 | 0.00 | 0.01 | 0.01 | 74 | 1008.9 |
| 20260830182551 | 68 | 158 | 1.0 | 7.0 | 0.00 | 0.01 | 0.01 | 73 | 1008.7 |
| 20260830181526 | 68 | 120 | 1.0 | 7.0 | 0.00 | 0.01 | 0.01 | 72 | 1008.9 |
| 20260830180522 | 68 | 173 | 1.0 | 5.0 | 0.00 | 0.01 | 0.01 | 70 | 1008.9 |
| 20260830175536 | 69 | 167 | 2.0 | 7.0 | 0.00 | 0.01 | 0.01 | 70 | 1009.1 |
| 20260830174546 | 69 | 204 | 0.0 | 7.0 | 0.00 | 0.01 | 0.01 | 69 | 1009.1 |
| 20260830173522 | 69 | 155 | 2.0 | 7.0 | 0.00 | 0.01 | 0.01 | 68 | 1009.1 |
| 20260830172526 | 69 | 252 | 0.0 | 5.0 | 0.00 | 0.01 | 0.01 | 68 | 1009.3 |
| 20260830171521 | 70 | 206 | 1.0 | 7.0 | 0.00 | 0.01 | 0.01 | 68 | 1009.2 |
| 20260830170530 | 70 | 144 | 1.0 | 5.0 | 0.00 | 0.01 | 0.01 | 69 | 1009.2 |
| 20260830165546 | 71 | 182 | 1.0 | 5.0 | 0.00 | 0.01 | 0.01 | 67 | 1009.2 |
| 20260830164521 | 71 | 194 | 1.0 | 7.0 | 0.00 | 0.01 | 0.01 | 65 | 1009.2 |
| 20260830163531 | 72 | 146 | 2.0 | 10.0 | 0.00 | 0.01 | 0.01 | 65 | 1009.4 |
| 20260830162526 | 72 | 202 | 1.0 | 10.0 | 0.00 | 0.02 | 0.01 | 64 | 1009.4 |
| 20260830161515 | 72 | 172 | 1.0 | 7.0 | 0.00 | 0.02 | 0.01 | 62 | 1009.4 |
| 20260830160546 | 72 | 210 | 1.0 | 10.0 | 0.00 | 0.02 | 0.01 | 61 | 1009.4 |
| 20260830155537 | 72 | 206 | 2.0 | 10.0 | 0.00 | 0.02 | 0.01 | 62 | 1009.6 |
| 20260830154527 | 72 | 190 | 2.0 | 10.0 | 0.00 | 0.02 | 0.01 | 62 | 1009.8 |
| 20260830153521 | 71 | 201 | 2.0 | 12.0 | 0.00 | 0.02 | 0.01 | 61 | 1009.8 |
| 20260830152551 | 71 | 197 | 1.0 | 5.0 | 0.00 | 0.02 | 0.01 | 63 | 1009.8 |
| 20260830151527 | 71 | 151 | 1.0 | 5.0 | 0.00 | 0.02 | 0.01 | 64 | 1009.9 |
| 20260830150521 | 72 | 162 | 1.0 | 7.0 | 0.00 | 0.02 | 0.01 | 64 | 1010.0 |
| 20260830145516 | 73 | 234 | 2.0 | 10.0 | 0.00 | 0.02 | 0.01 | 63 | 1009.9 |
| 20260830144527 | 74 | 193 | 2.0 | 10.0 | 0.00 | 0.02 | 0.01 | 64 | 1010.0 |
| 20260830143522 | 75 | 167 | 3.0 | 15.0 | 0.00 | 0.02 | 0.01 | 62 | 1009.9 |
| 20260830142530 | 75 | 198 | 1.0 | 5.0 | 0.00 | 0.02 | 0.01 | 57 | 1010.0 |
| 20260830141526 | 75 | 202 | 1.0 | 5.0 | 0.00 | 0.02 | 0.01 | 57 | 1009.9 |
| 20260830140521 | 75 | 174 | 1.0 | 7.0 | 0.00 | 0.02 | 0.01 | 61 | 1010.0 |
| 20260830135530 | 74 | 186 | 2.0 | 7.0 | 0.00 | 0.02 | 0.01 | 62 | 1010.1 |
| 20260830134524 | 74 | 191 | 2.0 | 7.0 | 0.01 | 0.02 | 0.01 | 64 | 1010.3 |
| 20260830133515 | 72 | 165 | 1.0 | 10.0 | 0.01 | 0.02 | 0.01 | 66 | 1010.2 |
| 20260830132526 | 71 | 222 | 1.0 | 7.0 | 0.01 | 0.02 | 0.01 | 69 | 1010.4 |
| 20260830131521 | 71 | 172 | 2.0 | 10.0 | 0.01 | 0.02 | 0.01 | 74 | 1010.6 |
| 20260830130551 | 72 | 140 | 1.0 | 5.0 | 0.01 | 0.02 | 0.01 | 76 | 1010.8 |
| 20260830125526 | 74 | 186 | 1.0 | 10.0 | 0.01 | 0.02 | 0.01 | 66 | 1010.7 |
| 20260830124521 | 74 | 151 | 1.0 | 10.0 | 0.00 | 0.01 | 0.00 | 65 | 1010.6 |
| 20260830123528 | 74 | 202 | 1.0 | 10.0 | 0.00 | 0.01 | 0.00 | 62 | 1010.8 |
| 20260830122522 | 73 | 142 | 1.0 | 5.0 | 0.00 | 0.01 | 0.00 | 62 | 1010.8 |
| 20260830121531 | 73 | 193 | 1.0 | 7.0 | 0.00 | 0.02 | 0.00 | 64 | 1010.8 |
| 20260830120524 | 74 | 158 | 1.0 | 5.0 | 0.00 | 0.02 | 0.00 | 63 | 1010.9 |
| 20260830115521 | 75 | 201 | 1.0 | 5.0 | 0.00 | 0.02 | 0.00 | 63 | 1011.0 |
| 20260830114537 | 75 | 191 | 0.0 | 5.0 | 0.00 | 0.02 | 0.00 | 60 | 1010.9 |
| 20260830113526 | 74 | 150 | 1.0 | 7.0 | 0.00 | 0.02 | 0.00 | 59 | 1010.9 |
| 20260830112522 | 74 | 338 | 1.0 | 7.0 | 0.00 | 0.02 | 0.00 | 60 | 1010.9 |
| 20260830111530 | 73 | 166 | 1.0 | 7.0 | 0.00 | 0.02 | 0.00 | 61 | 1011.1 |
| 20260830110607 | 73 | 215 | 1.0 | 10.0 | 0.00 | 0.02 | 0.00 | 63 | 1011.4 |
| 20260830105530 | 73 | 135 | 1.0 | 7.0 | 0.00 | 0.02 | 0.00 | 64 | 1011.5 |
| 20260830104526 | 73 | 179 | 2.0 | 10.0 | 0.00 | 0.04 | 0.00 | 64 | 1011.6 |
| 20260830103522 | 73 | 202 | 1.0 | 7.0 | 0.00 | 0.06 | 0.00 | 64 | 1011.7 |
| 20260830102530 | 72 | 225 | 0.0 | 2.0 | 0.00 | 0.07 | 0.00 | 65 | 1011.8 |
| 20260830101526 | 72 | 177 | 1.0 | 5.0 | 0.00 | 0.07 | 0.00 | 65 | 1011.9 |
| 20260830100521 | 71 | 173 | 1.0 | 5.0 | 0.00 | 0.07 | 0.00 | 67 | 1012.0 |
| 20260830095530 | 71 | 158 | 1.0 | 5.0 | 0.00 | 0.07 | 0.00 | 68 | 1011.8 |
| 20260830094526 | 71 | 141 | 0.0 | 2.0 | 0.00 | 0.07 | 0.00 | 67 | 1011.9 |
| 20260830093521 | 71 | 157 | 0.0 | 5.0 | 0.00 | 0.07 | 0.00 | 66 | 1012.0 |
| 20260830092530 | 70 | 164 | 1.0 | 7.0 | 0.00 | 0.08 | 0.00 | 67 | 1011.9 |
| 20260830091528 | 69 | 201 | 1.0 | 5.0 | 0.00 | 0.09 | 0.00 | 69 | 1012.0 |
| 20260830090521 | 69 | 316 | 1.0 | 12.0 | 0.00 | 0.09 | 0.00 | 70 | 1012.0 |
| 20260830085531 | 68 | 191 | 0.0 | 2.0 | 0.00 | 0.09 | 0.00 | 71 | 1012.1 |
| 20260830084527 | 68 | 340 | 0.0 | 5.0 | 0.00 | 0.09 | 0.00 | 72 | 1012.2 |
| 20260830083520 | 67 | 143 | 0.0 | 5.0 | 0.00 | 0.09 | 0.00 | 73 | 1012.2 |
| 20260830082532 | 66 | 180 | 0.0 | 2.0 | 0.00 | 0.09 | 0.00 | 75 | 1012.0 |
| 20260830081604 | 66 | 234 | 1.0 | 5.0 | 0.00 | 0.11 | 0.00 | 78 | 1012.0 |
| 20260830080526 | 65 | 279 | 0.0 | 2.0 | 0.00 | 0.11 | 0.00 | 79 | 1011.9 |
| 20260830075520 | 64 | 188 | 0.0 | 2.0 | 0.00 | 0.11 | 0.00 | 81 | 1011.8 |
| 20260830074529 | 64 | 137 | 0.0 | 7.0 | 0.00 | 0.12 | 0.00 | 82 | 1011.9 |
| 20260830073542 | 63 | 240 | 0.0 | 5.0 | 0.00 | 0.13 | 0.00 | 83 | 1011.9 |
| 20260830072520 | 63 | 163 | 0.0 | 2.0 | 0.00 | 0.13 | 0.00 | 85 | 1011.7 |
| 20260830071516 | 63 | 173 | 0.0 | 2.0 | 0.00 | 0.13 | 0.00 | 85 | 1011.7 |
| 20260830070526 | 62 | 98 | 0.0 | 0.0 | 0.00 | 0.13 | 0.00 | 85 | 1011.5 |
| 20260830065528 | 62 | 153 | 0.0 | 0.0 | 0.00 | 0.13 | 0.00 | 87 | 1011.4 |
| 20260830064520 | 61 | 179 | 0.0 | 5.0 | 0.00 | 0.13 | 0.00 | 89 | 1011.4 |
| 20260830063531 | 61 | 50 | 0.0 | 5.0 | 0.00 | 0.13 | 0.00 | 89 | 1011.2 |
| 20260830062527 | 61 | 74 | 0.0 | 2.0 | 0.00 | 0.13 | 0.00 | 90 | 1011.2 |
| 20260830061528 | 61 | 208 | 0.0 | 2.0 | 0.00 | 0.13 | 0.00 | 91 | 1011.1 |